Regional Weather Roundup
Issued by NWS Spokane, WA

Home | Current Version | Previous Version | Text Only | Print | Product List | Glossary On
Versions: 1 2 3 4 5 6 7 8 9 10 11 12 13 14 15 16 17 18 19 20 21 22 23 24 25 26 27 28 29 30 31 32 33 34 35 36 37 38 39 40 41 42 43 44 45 46 47 48 49 50
872
NZUS01 KOTX 250310
RWROTX
EASTERN WASHINGTON/NORTHERN IDAHO ROUNDUP
NATIONAL WEATHER SERVICE, SPOKANE WA
800 PM PDT TUE MAY 24 2016

Note: "fair" indicated few or no clouds below 12,000 feet with no
significant weather and/or obstructions to visibility.

...NORTHEAST WASHINGTON AND NORTHERN IDAHO PANHANDLE...

CITY           SKY/WX    TMP DP  RH WIND       PRES   REMARKS
SPOKANE INTL   PTCLDY    60  45  57 S6        29.90S
SPOKANE DOWNTO MOCLDY    62  49  62 CALM      29.89F
COEUR D ALENE  CLEAR     59  46  63 E7        29.88R
DEER PARK      MOCLDY    60  48  64 SE5       29.89F
SANDPOINT      MOCLDY    55  48  76 CALM      29.89S
BONNERS FERRY  FAIR      59  45  58 SW7       29.88S

...SOUTHEAST WASHINGTON AND SOUTHERN IDAHO PANHANDLE...

CITY           SKY/WX    TMP DP  RH WIND       PRES   REMARKS
WALLA WALLA    CLEAR     67  46  47 E6        29.86S
PULLMAN/MOSCOW CLOUDY    58  47  66 E3        29.93S
LEWISTON       CLEAR     65  46  50 E6        29.89S
LOWELL           N/A     54  51  90 CALM      29.92R

...COLUMBIA BASIN...

CITY           SKY/WX    TMP DP  RH WIND       PRES   REMARKS
EPHRATA        MOCLDY    70  43  37 S7        29.84S
MOSES LAKE     PTCLDY    71  39  31 S7        29.85S
TRI CITIES     PTCLDY    74  41  30 S8        29.84R
HERMISTON      CLEAR     72  44  36 W6        29.84S
PENDLETON      CLEAR     67  36  31 NW6       29.87R

...EAST SLOPES CASCADES...

CITY           SKY/WX    TMP DP  RH WIND       PRES   REMARKS
THE DALLES     PTCLDY    68  43  40 W12G21    29.90R
YAKIMA         CLEAR     69  43  38 NW12G20   29.87R
ELLENSBURG     CLEAR     62  43  49 NW18G29   29.90R
STAMPEDE PASS  CLOUDY    45  42  89 VRB5      30.00S
WENATCHEE      CLEAR     68  42  38 NW18      29.86R
OMAK           PTCLDY    64  46  52 NW6       29.85R

...SOUTHERN BRITISH COLUMBIA...

CITY           SKY/WX    TMP DP  RH WIND       PRES   REMARKS
CASTLEGAR      PTCLDY    63  50  63 S9        29.84R
CRANBROOK      PTCLDY    61  43  51 E5        29.84S

...WESTERN MONTANA...

CITY           SKY/WX    TMP DP  RH WIND       PRES   REMARKS
MISSOULA       PTCLDY    54  42  64 N5        29.92S

...NEIGHBORING CITIES...

CITY           SKY/WX    TMP DP  RH WIND       PRES   REMARKS
SEATTLE        MOCLDY    63  50  62 NW7       30.00S
CALGARY        PTCLDY    57  37  47 SE12      29.84S



USA.gov is the U.S. government's official web portal to all federal, state and local government web resources and services.